sat.trackr.live / text

‹ back to catalog

STARLINK-37344

NORAD 68744 · 2026-082S

PAYLOAD ACTIVE UNKNOWN

§ Identity

Operator
Country
US
Launch date
2026-04-15
Launch site
AFWTR
Launch vehicle
Mass (kg)
RCS (m²)

Purposes: comms

External: N2YO · Heavens-Above · Gunter

§ Orbital elements

Epoch: 2026-05-25T04:00:03.998880Z

Period
92.32 min
Inclination
97.2853°
Eccentricity
0.0002419
Mean motion
15.59802500 rev/d
Perigee alt
386.6 km
Apogee alt
389.9 km
Semi-major
6,766.4 km
B*
-3.0845e-2
RAAN
8.8438°
Arg perigee
119.1282°
Mean anomaly
125.5706°
Rev number
600

§ Raw data

STARLINK-373441 68744U 26082S   26145.16671295 -.02191018  00000+0 -30845-1 0  99962 68744  97.2853   8.8438 0002419 119.1282 125.5706 15.59802500  6003

JSON: /api/v1/satellites/68744 · /tle

For live sub-satellite position, see the globe view (requires WebGL).

§ Visibility from observer

Set your observer location to see the next 7 days of passes ≥ 10°. The values pass through the URL so the page stays shareable.

No JS? Fill the form by hand. The geolocation button needs JavaScript.